Home > Weather > Augusta > Past weeks

Flag for USA Past Weather in Augusta, Georgia, USA — Yesterday and Last 2 Weeks

Now
75 °F

Clear.


Feels Like: 76 °F
Forecast: 68 / 87 °F
Wind: 5 mph from South

Location: Daniel Field

Current Time: May 31, 2016 at 1:52:40 AM

Latest Report: May 31, 2016 at 12:53 AM


Visibility: 10 mi

Pressure: 29.91 "Hg

Humidity: 76%

Dew Point: 67 °F

Location of AugustaLocation

Past Weather in Augusta — Graph

°F

Augusta Temperature Yesterday

Maximum temperature yesterday: 89 °F (at 4:53 PM)
Minimum temperature yesterday: 67 °F (at 4:53 AM)
Average temperature yesterday: 78 °F

High & Low Weather Summary for the Past Weeks

 TemperatureHumidityPressure
High90 °F (May 26, 4:53 PM)94% (May 20, 11:53 PM)30.22 "Hg (May 20, 11:53 PM)
Low58 °F (May 23, 5:53 AM)27% (May 15, 11:53 PM)29.86 "Hg (May 21, 6:53 PM)
Average73 °F65%30.05 "Hg
* Reported May 15 11:53 PM — May 30 11:53 PM, Augusta, Weather by CustomWeather, © 2016

Note: Actual official high and low records may vary slightly from our data, if they occured in-between our weather recording intervals... More about our weather records

Advertising

Augusta Weather History for the Previous 24 Hours

Scroll right to see more
 ConditionsComfort  
Time TempWeatherWind HumidityBarometerVisibility
11:53 PM
Mon, May 30
77 °FClear.5 mph69%29.92 "Hg10 mi
10:53 PM81 °FClear.6 mph54%29.92 "Hg10 mi
9:53 PM82 °FPassing clouds.5 mph53%29.91 "Hg10 mi
8:53 PM84 °FSunny.5 mph48%29.90 "Hg10 mi
7:53 PM87 °FSunny.5 mph45%29.89 "Hg10 mi
6:53 PM89 °FSunny.7 mph42%29.88 "Hg10 mi
5:53 PM89 °FSunny.5 mph42%29.89 "Hg10 mi
4:53 PM89 °FPassing clouds.9 mph42%29.89 "Hg10 mi
3:53 PM88 °FPassing clouds.9 mph45%29.90 "Hg10 mi
2:53 PM88 °FPassing clouds.14 mph43%29.92 "Hg10 mi
1:53 PM87 °FPassing clouds.13 mph46%29.94 "Hg10 mi
12:53 PM84 °FPassing clouds.13 mph53%29.96 "Hg10 mi
11:53 AM80 °FPartly sunny.8 mph62%29.99 "Hg10 mi
11:02 AM78 °FScattered clouds.12 mph64%30.01 "Hg10 mi
10:53 AM77 °FPartly sunny.12 mph66%30.00 "Hg10 mi
9:53 AM74 °FPartly sunny.7 mph71%30.00 "Hg10 mi
8:53 AM71 °FSunny.8 mph73%30.00 "Hg10 mi
7:53 AM69 °FBroken clouds.8 mph79%29.99 "Hg10 mi
6:53 AM67 °FOvercast.7 mph85%29.98 "Hg10 mi
5:53 AM67 °FPassing clouds.8 mph81%29.97 "Hg10 mi
4:53 AM67 °FClear.8 mph79%29.96 "Hg10 mi
3:53 AM68 °FPassing clouds.8 mph82%29.96 "Hg10 mi
2:53 AM69 °FPassing clouds.7 mph76%29.96 "Hg10 mi
1:53 AM70 °FLight rain. Overcast.9 mph76%29.98 "Hg10 mi
Weather by CustomWeather, © 2016

See weather overviewHow to use our weather pages